Girona Airport

Jump to: basic info | weather | frequencies | runways | comments

Related pages: nearby airports | nearby navaids | notams | map

Basic information (top)

Codes: GRO LEGE
Location: lon 41.901001, lat 2.760550, elev 468 ft / 143 m msl
Status: medium_airport
Scheduled airline service: yes
Links: Wikipedia Mobile

Weather (top)

Current conditions (rec'd 2015/03/29 23:30Z):

LEGE 292330Z VRB01KT 9999 FEW020 10/10 Q1020

Airport forecast (rec'd 2015/03/29 18:27Z):

TAF LEGE 291700Z 2918/3018 VRB04KT 9999 FEW030 TX22/3014Z TN08/3006Z PROB40 
      TEMPO 3002/3008 3000 BR 
      BECMG 3012/3014 19010KT

Frequencies (top)

Verify before use: may be inaccurate or out of date.

APP: 120.9 MHz (APP)
GND: 121.7 MHz (GND)
TWR: 118.5 MHz (TWR)

Runways (top)

02/20: 7,874 x 148 ft (2,400 x 45 m) — paved — lighted

Latest comments (top)

No comments yet for Girona Airport

More... (top)

See also NOTAMs and nearby airports and navaids, or visit the Girona Airport page at the main OurAirports website..